Time,TemperatureF,DewpointF,PressureIn,WindDirection,WindDirectionDegrees,WindSpeedMPH,WindSpeedGustMPH,Humidity,HourlyPrecipIn,Conditions,Clouds,dailyrainin,SoftwareType,DateUTC
2013-02-13 00:00:00,34.4,29.5,29.87,SW,226,4.0,6.0,82,0.00,,---,0.00,VWS V14.01,2013-02-13 05:00:00,
2013-02-13 00:05:00,34.4,29.5,29.87,SW,228,0.0,5.0,82,0.00,,---,0.00,VWS V14.01,2013-02-13 05:05:00,
2013-02-13 00:10:00,34.4,29.5,29.87,SW,228,0.0,5.0,82,0.00,,---,0.00,VWS V14.01,2013-02-13 05:10:00,
2013-02-13 00:15:00,34.3,29.4,29.87,SW,229,0.0,5.0,82,0.00,,---,0.00,VWS V14.01,2013-02-13 05:15:00,
2013-02-13 00:20:00,34.0,29.1,29.86,SW,229,0.0,5.0,82,0.00,,---,0.00,VWS V14.01,2013-02-13 05:20:00,
2013-02-13 00:25:00,33.7,28.8,29.86,SW,232,0.0,5.0,82,0.00,,---,0.00,VWS V14.01,2013-02-13 05:25:00,
2013-02-13 00:30:00,33.5,28.9,29.86,SW,232,0.0,5.0,83,0.00,,---,0.00,VWS V14.01,2013-02-13 05:30:00,
2013-02-13 00:35:00,33.3,28.7,29.86,West,270,0.0,2.0,83,0.00,,---,0.00,VWS V14.01,2013-02-13 05:35:00,
2013-02-13 00:40:00,33.1,28.8,29.86,West,270,0.0,2.0,84,0.00,,---,0.00,VWS V14.01,2013-02-13 05:40:00,
2013-02-13 00:45:00,33.0,28.7,29.88,SW,231,4.0,5.0,84,0.00,,---,0.00,VWS V14.01,2013-02-13 05:45:00,
2013-02-13 00:50:00,33.1,28.8,29.88,SW,230,4.0,6.0,84,0.00,,---,0.00,VWS V14.01,2013-02-13 05:50:00,
2013-02-13 00:55:00,33.4,29.1,29.88,SW,224,6.0,7.0,84,0.00,,---,0.00,VWS V14.01,2013-02-13 05:55:00,
2013-02-13 01:00:00,33.5,29.2,29.87,SW,232,3.0,7.0,84,0.00,,---,0.00,VWS V14.01,2013-02-13 06:00:00,
2013-02-13 01:05:00,33.6,29.0,29.88,SW,215,1.0,7.0,83,0.00,,---,0.00,VWS V14.01,2013-02-13 06:05:00,
2013-02-13 01:10:00,33.6,29.0,29.87,SW,222,5.0,7.0,83,0.00,,---,0.00,VWS V14.01,2013-02-13 06:10:00,
2013-02-13 01:15:00,33.7,29.4,29.87,SW,223,6.0,7.0,84,0.00,,---,0.00,VWS V14.01,2013-02-13 06:15:00,
2013-02-13 01:20:00,33.8,29.5,29.87,WSW,239,4.0,8.0,84,0.00,,---,0.00,VWS V14.01,2013-02-13 06:20:00,
2013-02-13 01:25:00,33.9,29.6,29.87,SW,234,4.0,9.0,84,0.00,,---,0.00,VWS V14.01,2013-02-13 06:25:00,
2013-02-13 01:30:00,33.8,29.2,29.88,WSW,240,0.0,9.0,83,0.00,,---,0.00,VWS V14.01,2013-02-13 06:30:00,
2013-02-13 01:35:00,33.8,29.2,29.87,WSW,242,2.0,5.0,83,0.00,,---,0.00,VWS V14.01,2013-02-13 06:35:00,
2013-02-13 01:40:00,33.7,29.1,29.87,WSW,247,0.0,5.0,83,0.00,,---,0.00,VWS V14.01,2013-02-13 06:40:00,
2013-02-13 01:45:00,33.6,29.0,29.87,WSW,249,1.0,5.0,83,0.00,,---,0.00,VWS V14.01,2013-02-13 06:45:00,
2013-02-13 01:50:00,33.5,28.9,29.87,WSW,247,0.0,5.0,83,0.00,,---,0.00,VWS V14.01,2013-02-13 06:50:00,
2013-02-13 01:55:00,33.4,28.8,29.87,SW,226,5.0,5.0,83,0.00,,---,0.00,VWS V14.01,2013-02-13 06:55:00,
2013-02-13 02:00:00,33.4,28.8,29.87,SW,231,3.0,7.0,83,0.00,,---,0.00,VWS V14.01,2013-02-13 07:00:00,
2013-02-13 02:05:00,33.4,28.8,29.87,SW,227,8.0,8.0,83,0.00,,---,0.00,VWS V14.01,2013-02-13 07:05:00,
2013-02-13 02:10:00,33.5,28.9,29.87,SW,223,6.0,8.0,83,0.00,,---,0.00,VWS V14.01,2013-02-13 07:10:00,
2013-02-13 02:15:00,33.5,28.6,29.87,WNW,292,4.0,8.0,82,0.00,,---,0.00,VWS V14.01,2013-02-13 07:15:00,
2013-02-13 02:20:00,33.7,28.5,29.87,WSW,247,3.0,8.0,81,0.00,,---,0.00,VWS V14.01,2013-02-13 07:20:00,
2013-02-13 02:25:00,33.7,28.5,29.87,SW,234,4.0,8.0,81,0.00,,---,0.00,VWS V14.01,2013-02-13 07:25:00,
2013-02-13 02:30:00,33.7,28.5,29.88,SW,223,3.0,12.0,81,0.00,,---,0.00,VWS V14.01,2013-02-13 07:30:00,
2013-02-13 02:35:00,33.7,28.5,29.88,SW,224,5.0,10.0,81,0.00,,---,0.00,VWS V14.01,2013-02-13 07:35:00,
2013-02-13 02:40:00,33.7,28.2,29.88,SW,221,4.0,10.0,80,0.00,,---,0.00,VWS V14.01,2013-02-13 07:40:00,
2013-02-13 02:45:00,33.8,28.3,29.89,WSW,239,6.0,11.0,80,0.00,,---,0.00,VWS V14.01,2013-02-13 07:45:00,
2013-02-13 02:50:00,33.9,28.1,29.89,SSW,209,8.0,11.0,79,0.00,,---,0.00,VWS V14.01,2013-02-13 07:50:00,
2013-02-13 02:55:00,34.0,27.9,29.89,SSW,207,4.0,11.0,78,0.00,,---,0.00,VWS V14.01,2013-02-13 07:55:00,
2013-02-13 03:00:00,34.0,27.6,29.89,SW,235,11.0,11.0,77,0.00,,---,0.00,VWS V14.01,2013-02-13 08:00:00,
2013-02-13 03:05:00,34.1,27.7,29.89,SW,228,6.0,9.0,77,0.00,,---,0.00,VWS V14.01,2013-02-13 08:05:00,
2013-02-13 03:10:00,34.2,27.4,29.89,SW,232,9.0,11.0,76,0.00,,---,0.00,VWS V14.01,2013-02-13 08:10:00,
2013-02-13 03:15:00,34.1,27.3,29.89,SSW,210,8.0,13.0,76,0.00,,---,0.00,VWS V14.01,2013-02-13 08:15:00,
2013-02-13 03:20:00,34.1,27.7,29.90,SW,225,6.0,13.0,77,0.00,,---,0.00,VWS V14.01,2013-02-13 08:20:00,
2013-02-13 03:25:00,34.1,27.7,29.89,WSW,255,7.0,13.0,77,0.00,,---,0.00,VWS V14.01,2013-02-13 08:25:00,
2013-02-13 03:30:00,34.0,27.6,29.89,SW,226,5.0,13.0,77,0.00,,---,0.00,VWS V14.01,2013-02-13 08:30:00,
2013-02-13 03:35:00,34.0,27.6,29.90,SW,221,5.0,10.0,77,0.00,,---,0.00,VWS V14.01,2013-02-13 08:35:00,
2013-02-13 03:40:00,34.0,27.9,29.89,SW,224,12.0,12.0,78,0.00,,---,0.00,VWS V14.01,2013-02-13 08:40:00,
2013-02-13 03:45:00,34.0,27.9,29.90,SW,228,6.0,12.0,78,0.00,,---,0.00,VWS V14.01,2013-02-13 08:45:00,
2013-02-13 03:50:00,34.0,27.9,29.89,SW,226,10.0,13.0,78,0.00,,---,0.00,VWS V14.01,2013-02-13 08:50:00,
2013-02-13 03:55:00,34.0,27.9,29.89,SW,236,10.0,13.0,78,0.00,,---,0.00,VWS V14.01,2013-02-13 08:55:00,
2013-02-13 04:00:00,33.9,27.8,29.89,SW,229,5.0,13.0,78,0.00,,---,0.00,VWS V14.01,2013-02-13 09:00:00,
2013-02-13 04:05:00,33.9,27.8,29.89,SW,235,7.0,10.0,78,0.00,,---,0.00,VWS V14.01,2013-02-13 09:05:00,
2013-02-13 04:10:00,33.8,27.7,29.89,WSW,242,2.0,10.0,78,0.00,,---,0.00,VWS V14.01,2013-02-13 09:10:00,
2013-02-13 04:15:00,33.8,27.7,29.89,SW,236,6.0,10.0,78,0.00,,---,0.00,VWS V14.01,2013-02-13 09:15:00,
2013-02-13 04:20:00,33.7,27.6,29.90,WSW,237,7.0,10.0,78,0.00,,---,0.00,VWS V14.01,2013-02-13 09:20:00,
2013-02-13 04:25:00,33.5,27.7,29.90,SW,229,4.0,10.0,79,0.00,,---,0.00,VWS V14.01,2013-02-13 09:25:00,
2013-02-13 04:30:00,33.4,27.6,29.89,SW,232,3.0,10.0,79,0.00,,---,0.00,VWS V14.01,2013-02-13 09:30:00,
2013-02-13 04:35:00,33.3,27.5,29.90,SW,231,5.0,8.0,79,0.00,,---,0.00,VWS V14.01,2013-02-13 09:35:00,
2013-02-13 04:40:00,33.3,27.5,29.90,SW,221,5.0,10.0,79,0.00,,---,0.00,VWS V14.01,2013-02-13 09:40:00,
2013-02-13 04:45:00,33.3,27.2,29.90,WSW,242,2.0,10.0,78,0.00,,---,0.00,VWS V14.01,2013-02-13 09:45:00,
2013-02-13 04:50:00,33.4,27.3,29.90,WSW,242,3.0,11.0,78,0.00,,---,0.00,VWS V14.01,2013-02-13 09:50:00,
2013-02-13 04:55:00,33.4,27.3,29.90,SW,232,1.0,11.0,78,0.00,,---,0.00,VWS V14.01,2013-02-13 09:55:00,
2013-02-13 05:00:00,33.3,27.5,29.90,WSW,238,3.0,11.0,79,0.00,,---,0.00,VWS V14.01,2013-02-13 10:00:00,
2013-02-13 05:05:00,33.3,27.5,29.90,WSW,237,4.0,6.0,79,0.00,,---,0.00,VWS V14.01,2013-02-13 10:05:00,
2013-02-13 05:10:00,33.2,27.4,29.90,SW,235,3.0,9.0,79,0.00,,---,0.00,VWS V14.01,2013-02-13 10:10:00,
2013-02-13 05:15:00,33.2,27.4,29.90,West,262,3.0,9.0,79,0.00,,---,0.00,VWS V14.01,2013-02-13 10:15:00,
2013-02-13 05:20:00,33.0,27.2,29.90,WSW,239,2.0,9.0,79,0.00,,---,0.00,VWS V14.01,2013-02-13 10:20:00,
2013-02-13 05:25:00,32.9,27.1,29.89,WSW,247,2.0,9.0,79,0.00,,---,0.00,VWS V14.01,2013-02-13 10:25:00,
2013-02-13 05:30:00,32.8,27.3,29.89,WSW,257,2.0,9.0,80,0.00,,---,0.00,VWS V14.01,2013-02-13 10:30:00,
2013-02-13 05:35:00,32.6,27.1,29.89,WSW,242,1.0,8.0,80,0.00,,---,0.00,VWS V14.01,2013-02-13 10:35:00,
2013-02-13 05:40:00,32.6,27.1,29.89,WSW,243,1.0,8.0,80,0.00,,---,0.00,VWS V14.01,2013-02-13 10:40:00,
2013-02-13 05:45:00,32.6,27.1,29.89,WSW,251,0.0,8.0,80,0.00,,---,0.00,VWS V14.01,2013-02-13 10:45:00,
2013-02-13 05:50:00,32.5,27.0,29.89,West,263,2.0,8.0,80,0.00,,---,0.00,VWS V14.01,2013-02-13 10:50:00,
2013-02-13 05:55:00,32.5,27.0,29.89,West,277,0.0,8.0,80,0.00,,---,0.00,VWS V14.01,2013-02-13 10:55:00,
2013-02-13 06:00:00,32.4,26.9,29.88,WNW,290,0.0,8.0,80,0.00,,---,0.00,VWS V14.01,2013-02-13 11:00:00,
2013-02-13 06:05:00,32.2,27.0,29.88,WNW,282,0.0,4.0,81,0.00,,---,0.00,VWS V14.01,2013-02-13 11:05:00,
2013-02-13 06:10:00,32.1,26.9,29.88,West,279,0.0,4.0,81,0.00,,---,0.00,VWS V14.01,2013-02-13 11:10:00,
2013-02-13 06:15:00,31.9,26.7,29.88,WNW,297,0.0,4.0,81,0.00,,---,0.00,VWS V14.01,2013-02-13 11:15:00,
2013-02-13 06:20:00,31.7,26.8,29.88,West,276,0.0,5.0,82,0.00,,---,0.00,VWS V14.01,2013-02-13 11:20:00,
2013-02-13 06:25:00,31.6,26.8,29.89,WNW,285,0.0,5.0,82,0.00,,---,0.00,VWS V14.01,2013-02-13 11:25:00,
2013-02-13 06:30:00,31.4,26.5,29.89,WNW,285,0.0,5.0,82,0.00,,---,0.00,VWS V14.01,2013-02-13 11:30:00,
2013-02-13 06:35:00,31.2,26.6,29.89,WNW,285,0.0,0.0,83,0.00,,---,0.00,VWS V14.01,2013-02-13 11:35:00,
2013-02-13 06:40:00,31.0,26.5,29.88,WNW,285,0.0,0.0,83,0.00,,---,0.00,VWS V14.01,2013-02-13 11:40:00,
2013-02-13 06:45:00,30.8,26.3,29.89,WNW,285,0.0,0.0,83,0.00,,---,0.00,VWS V14.01,2013-02-13 11:45:00,
2013-02-13 06:50:00,30.7,26.5,29.89,WNW,285,0.0,0.0,84,0.00,,---,0.00,VWS V14.01,2013-02-13 11:50:00,
2013-02-13 06:55:00,30.5,26.2,29.89,WNW,285,0.0,0.0,84,0.00,,---,0.00,VWS V14.01,2013-02-13 11:55:00,
2013-02-13 07:00:00,30.4,26.1,29.89,WNW,285,0.0,0.0,84,0.00,,---,0.00,VWS V14.01,2013-02-13 12:00:00,
2013-02-13 07:05:00,30.4,26.1,29.89,WNW,285,0.0,0.0,84,0.00,,---,0.00,VWS V14.01,2013-02-13 12:05:00,
2013-02-13 07:10:00,30.3,26.1,29.89,WNW,286,0.0,2.0,84,0.00,,---,0.00,VWS V14.01,2013-02-13 12:10:00,
2013-02-13 07:15:00,30.4,26.1,29.89,West,273,0.0,2.0,84,0.00,,---,0.00,VWS V14.01,2013-02-13 12:15:00,
2013-02-13 07:20:00,30.5,26.2,29.89,West,273,0.0,2.0,84,0.00,,---,0.00,VWS V14.01,2013-02-13 12:20:00,
2013-02-13 07:25:00,30.6,26.4,29.89,West,273,0.0,2.0,84,0.00,,---,0.00,VWS V14.01,2013-02-13 12:25:00,
2013-02-13 07:30:00,30.8,26.8,29.90,West,272,0.0,2.0,85,0.00,,---,0.00,VWS V14.01,2013-02-13 12:30:00,
2013-02-13 07:35:00,31.1,26.8,29.90,WSW,244,0.0,0.0,84,0.00,,---,0.00,VWS V14.01,2013-02-13 12:35:00,
2013-02-13 07:40:00,31.7,27.4,29.90,SW,232,0.0,4.0,84,0.00,,---,0.00,VWS V14.01,2013-02-13 12:40:00,
2013-02-13 07:45:00,32.3,27.7,29.90,SW,224,5.0,5.0,83,0.00,,---,0.00,VWS V14.01,2013-02-13 12:45:00,
2013-02-13 07:50:00,32.8,27.9,29.90,SW,222,2.0,5.0,82,0.00,,---,0.00,VWS V14.01,2013-02-13 12:50:00,
2013-02-13 07:55:00,33.3,28.4,29.90,SSW,206,2.0,5.0,82,0.00,,---,0.00,VWS V14.01,2013-02-13 12:55:00,
2013-02-13 08:00:00,33.5,28.6,29.90,SSW,206,1.0,5.0,82,0.00,,---,0.00,VWS V14.01,2013-02-13 13:00:00,
2013-02-13 08:05:00,33.8,28.6,29.90,SSW,206,3.0,7.0,81,0.00,,---,0.00,VWS V14.01,2013-02-13 13:05:00,
2013-02-13 08:10:00,34.0,28.8,29.90,SW,217,2.0,7.0,81,0.00,,---,0.00,VWS V14.01,2013-02-13 13:10:00,
2013-02-13 08:15:00,34.3,28.8,29.90,SSW,208,0.0,7.0,80,0.00,,---,0.00,VWS V14.01,2013-02-13 13:15:00,
2013-02-13 08:20:00,34.4,28.6,29.90,SW,224,4.0,7.0,79,0.00,,---,0.00,VWS V14.01,2013-02-13 13:20:00,
2013-02-13 08:25:00,34.8,29.0,29.90,SW,226,3.0,7.0,79,0.00,,---,0.00,VWS V14.01,2013-02-13 13:25:00,
2013-02-13 08:30:00,35.2,28.7,29.91,SW,217,1.0,8.0,77,0.00,,---,0.00,VWS V14.01,2013-02-13 13:30:00,
2013-02-13 08:35:00,35.5,29.0,29.91,SSW,208,3.0,8.0,77,0.00,,---,0.00,VWS V14.01,2013-02-13 13:35:00,
2013-02-13 08:40:00,35.6,29.1,29.91,SW,217,1.0,8.0,77,0.00,,---,0.00,VWS V14.01,2013-02-13 13:40:00,
2013-02-13 08:45:00,35.8,29.0,29.91,SW,236,3.0,8.0,76,0.00,,---,0.00,VWS V14.01,2013-02-13 13:45:00,
2013-02-13 08:50:00,36.0,28.9,29.91,SW,230,4.0,8.0,75,0.00,,---,0.00,VWS V14.01,2013-02-13 13:50:00,
2013-02-13 08:55:00,36.3,28.8,29.91,SW,222,2.0,8.0,74,0.00,,---,0.00,VWS V14.01,2013-02-13 13:55:00,
2013-02-13 09:00:00,36.6,29.1,29.91,SW,235,2.0,8.0,74,0.00,,---,0.00,VWS V14.01,2013-02-13 14:00:00,
2013-02-13 09:05:00,37.0,29.2,29.91,WSW,237,2.0,6.0,73,0.00,,---,0.00,VWS V14.01,2013-02-13 14:05:00,
2013-02-13 09:10:00,37.3,29.1,29.91,SW,223,0.0,8.0,72,0.00,,---,0.00,VWS V14.01,2013-02-13 14:10:00,
2013-02-13 09:15:00,37.5,29.3,29.91,SW,223,0.0,8.0,72,0.00,,---,0.00,VWS V14.01,2013-02-13 14:15:00,
2013-02-13 09:20:00,37.9,29.0,29.90,SW,228,6.0,8.0,70,0.00,,---,0.00,VWS V14.01,2013-02-13 14:20:00,
2013-02-13 09:25:00,38.1,28.8,29.90,SW,227,5.0,8.0,69,0.00,,---,0.00,VWS V14.01,2013-02-13 14:25:00,
2013-02-13 09:30:00,38.2,28.6,29.90,SW,222,4.0,8.0,68,0.00,,---,0.00,VWS V14.01,2013-02-13 14:30:00,
2013-02-13 09:35:00,38.4,28.8,29.90,SW,223,8.0,8.0,68,0.00,,---,0.00,VWS V14.01,2013-02-13 14:35:00,
2013-02-13 09:40:00,38.6,29.0,29.89,West,259,3.0,8.0,68,0.00,,---,0.00,VWS V14.01,2013-02-13 14:40:00,
2013-02-13 09:45:00,38.8,28.8,29.89,SSW,205,4.0,8.0,67,0.00,,---,0.00,VWS V14.01,2013-02-13 14:45:00,
2013-02-13 09:50:00,38.9,28.5,29.88,SW,227,4.0,8.0,66,0.00,,---,0.00,VWS V14.01,2013-02-13 14:50:00,
2013-02-13 09:55:00,39.0,29.0,29.88,SW,230,3.0,8.0,67,0.00,,---,0.00,VWS V14.01,2013-02-13 14:55:00,
2013-02-13 10:00:00,39.4,28.6,29.88,West,259,0.0,8.0,65,0.00,,---,0.00,VWS V14.01,2013-02-13 15:00:00,
2013-02-13 10:05:00,39.7,28.9,29.88,WNW,293,0.0,0.0,65,0.00,,---,0.00,VWS V14.01,2013-02-13 15:05:00,
2013-02-13 10:10:00,40.1,28.9,29.88,West,275,1.0,1.0,64,0.00,,---,0.00,VWS V14.01,2013-02-13 15:10:00,
2013-02-13 10:15:00,40.4,29.2,29.87,West,272,2.0,6.0,64,0.00,,---,0.00,VWS V14.01,2013-02-13 15:15:00,
2013-02-13 10:20:00,40.5,28.5,29.87,WNW,292,1.0,6.0,62,0.00,,---,0.00,VWS V14.01,2013-02-13 15:20:00,
2013-02-13 10:25:00,40.6,28.6,29.87,NNW,332,0.0,6.0,62,0.00,,---,0.00,VWS V14.01,2013-02-13 15:25:00,
2013-02-13 10:30:00,40.6,28.6,29.87,West,266,0.0,6.0,62,0.00,,---,0.00,VWS V14.01,2013-02-13 15:30:00,
2013-02-13 10:35:00,40.6,28.6,29.86,NW,309,0.0,6.0,62,0.00,,---,0.00,VWS V14.01,2013-02-13 15:35:00,
2013-02-13 10:40:00,40.8,28.8,29.86,WNW,301,0.0,6.0,62,0.00,,---,0.00,VWS V14.01,2013-02-13 15:40:00,
2013-02-13 10:45:00,40.9,28.5,29.86,WNW,295,0.0,6.0,61,0.00,,---,0.00,VWS V14.01,2013-02-13 15:45:00,
2013-02-13 10:50:00,40.9,28.5,29.87,WSW,246,0.0,6.0,61,0.00,,---,0.00,VWS V14.01,2013-02-13 15:50:00,
2013-02-13 10:55:00,40.8,28.4,29.87,SW,234,1.0,6.0,61,0.00,,---,0.00,VWS V14.01,2013-02-13 15:55:00,
2013-02-13 11:00:00,40.8,28.4,29.88,WNW,292,3.0,7.0,61,0.00,,---,0.00,VWS V14.01,2013-02-13 16:00:00,
2013-02-13 11:05:00,40.9,28.9,29.87,West,267,0.0,4.0,62,0.00,,---,0.00,VWS V14.01,2013-02-13 16:05:00,
2013-02-13 11:10:00,41.0,28.6,29.87,West,269,0.0,6.0,61,0.00,,---,0.00,VWS V14.01,2013-02-13 16:10:00,
2013-02-13 11:15:00,41.0,29.0,29.87,SW,214,0.0,6.0,62,0.00,,---,0.00,VWS V14.01,2013-02-13 16:15:00,
2013-02-13 11:20:00,40.6,29.8,29.87,South,177,6.0,8.0,65,0.00,,---,0.00,VWS V14.01,2013-02-13 16:20:00,
2013-02-13 11:25:00,40.0,30.3,29.87,SSW,195,5.0,8.0,68,0.00,,---,0.00,VWS V14.01,2013-02-13 16:25:00,
2013-02-13 11:30:00,39.7,30.0,29.87,SSW,211,7.0,9.0,68,0.00,,---,0.00,VWS V14.01,2013-02-13 16:30:00,
2013-02-13 11:35:00,39.4,30.4,29.86,South,191,8.0,11.0,70,0.00,,---,0.00,VWS V14.01,2013-02-13 16:35:00,
2013-02-13 11:40:00,39.0,30.4,29.86,SSW,194,8.0,11.0,71,0.00,,---,0.00,VWS V14.01,2013-02-13 16:40:00,
2013-02-13 11:45:00,38.9,31.0,29.86,SSW,212,7.0,11.0,73,0.00,,---,0.00,VWS V14.01,2013-02-13 16:45:00,
2013-02-13 11:50:00,38.9,30.7,29.86,South,184,6.0,11.0,72,0.00,,---,0.00,VWS V14.01,2013-02-13 16:50:00,
2013-02-13 11:55:00,38.8,30.6,29.85,South,190,5.0,11.0,72,0.00,,---,0.00,VWS V14.01,2013-02-13 16:55:00,
2013-02-13 12:00:00,38.8,31.2,29.86,SSW,194,8.0,11.0,74,0.00,,---,0.00,VWS V14.01,2013-02-13 17:00:00,
2013-02-13 12:05:00,38.9,31.7,29.86,SSW,212,8.0,13.0,75,0.00,,---,0.00,VWS V14.01,2013-02-13 17:05:00,
2013-02-13 12:10:00,38.8,31.6,29.86,South,187,10.0,13.0,75,0.00,,---,0.00,VWS V14.01,2013-02-13 17:10:00,
2013-02-13 12:15:00,38.5,31.3,29.86,SSW,195,11.0,14.0,75,0.00,,---,0.00,VWS V14.01,2013-02-13 17:15:00,
2013-02-13 12:20:00,38.6,31.7,29.87,South,176,6.0,14.0,76,0.00,,---,0.00,VWS V14.01,2013-02-13 17:20:00,
2013-02-13 12:25:00,38.8,32.2,29.87,South,183,6.0,14.0,77,0.00,,---,0.00,VWS V14.01,2013-02-13 17:25:00,
2013-02-13 12:30:00,39.1,32.2,29.87,SSW,203,8.0,14.0,76,0.00,,---,0.00,VWS V14.01,2013-02-13 17:30:00,
2013-02-13 12:35:00,39.0,32.1,29.86,South,189,6.0,12.0,76,0.00,,---,0.00,VWS V14.01,2013-02-13 17:35:00,
2013-02-13 12:40:00,39.1,32.2,29.86,SSW,203,7.0,15.0,76,0.00,,---,0.00,VWS V14.01,2013-02-13 17:40:00,
2013-02-13 12:45:00,39.2,32.0,29.86,SSW,202,7.0,15.0,75,0.00,,---,0.00,VWS V14.01,2013-02-13 17:45:00,
2013-02-13 12:50:00,39.3,32.0,29.85,SW,227,6.0,15.0,75,0.00,,---,0.00,VWS V14.01,2013-02-13 17:50:00,
2013-02-13 12:55:00,39.3,31.7,29.85,SSW,205,4.0,15.0,74,0.00,,---,0.00,VWS V14.01,2013-02-13 17:55:00,
2013-02-13 13:00:00,39.3,31.7,29.85,SW,227,9.0,15.0,74,0.00,,---,0.00,VWS V14.01,2013-02-13 18:00:00,
2013-02-13 13:05:00,39.0,31.8,29.85,SSW,192,7.0,13.0,75,0.00,,---,0.00,VWS V14.01,2013-02-13 18:05:00,
2013-02-13 13:10:00,39.0,31.8,29.85,South,191,7.0,13.0,75,0.00,,---,0.00,VWS V14.01,2013-02-13 18:10:00,
2013-02-13 13:15:00,39.1,31.9,29.85,South,173,5.0,13.0,75,0.00,,---,0.00,VWS V14.01,2013-02-13 18:15:00,
2013-02-13 13:20:00,39.1,31.9,29.84,South,176,6.0,14.0,75,0.00,,---,0.00,VWS V14.01,2013-02-13 18:20:00,
2013-02-13 13:25:00,39.2,32.0,29.84,SSW,209,7.0,14.0,75,0.00,,---,0.00,VWS V14.01,2013-02-13 18:25:00,
2013-02-13 13:30:00,39.2,31.6,29.83,SW,220,6.0,14.0,74,0.00,,---,0.00,VWS V14.01,2013-02-13 18:30:00,
2013-02-13 13:35:00,39.2,32.0,29.84,SSE,168,7.0,14.0,75,0.00,,---,0.00,VWS V14.01,2013-02-13 18:35:00,
2013-02-13 13:40:00,39.3,32.4,29.84,SSW,209,7.0,14.0,76,0.00,,---,0.00,VWS V14.01,2013-02-13 18:40:00,
2013-02-13 13:45:00,39.4,31.8,29.84,SSW,192,8.0,14.0,74,0.00,,---,0.00,VWS V14.01,2013-02-13 18:45:00,
2013-02-13 13:50:00,39.4,31.8,29.83,SW,222,10.0,14.0,74,0.00,,---,0.00,VWS V14.01,2013-02-13 18:50:00,
2013-02-13 13:55:00,39.0,31.4,29.83,SSW,192,8.0,16.0,74,0.00,,---,0.00,VWS V14.01,2013-02-13 18:55:00,
2013-02-13 14:00:00,38.8,31.6,29.83,SSW,204,7.0,16.0,75,0.00,,---,0.00,VWS V14.01,2013-02-13 19:00:00,
2013-02-13 14:05:00,38.6,31.4,29.83,SSW,198,11.0,14.0,75,0.00,,---,0.00,VWS V14.01,2013-02-13 19:05:00,
2013-02-13 14:10:00,38.7,31.8,29.82,SSW,211,11.0,14.0,76,0.00,,---,0.00,VWS V14.01,2013-02-13 19:10:00,
2013-02-13 14:15:00,38.5,31.3,29.82,SW,217,9.0,15.0,75,0.00,,---,0.00,VWS V14.01,2013-02-13 19:15:00,
2013-02-13 14:20:00,38.5,31.6,29.82,South,190,8.0,15.0,76,0.00,,---,0.00,VWS V14.01,2013-02-13 19:20:00,
2013-02-13 14:25:00,38.5,31.6,29.83,SSW,207,9.0,15.0,76,0.00,,---,0.00,VWS V14.01,2013-02-13 19:25:00,
2013-02-13 14:30:00,38.4,31.8,29.82,South,185,8.0,15.0,77,0.00,,---,0.00,VWS V14.01,2013-02-13 19:30:00,
2013-02-13 14:35:00,38.6,32.0,29.83,South,190,13.0,13.0,77,0.00,,---,0.00,VWS V14.01,2013-02-13 19:35:00,
2013-02-13 14:40:00,38.7,31.8,29.82,SSW,197,9.0,13.0,76,0.00,,---,0.00,VWS V14.01,2013-02-13 19:40:00,
2013-02-13 14:45:00,39.0,32.4,29.82,SSW,202,7.0,13.0,77,0.00,,---,0.00,VWS V14.01,2013-02-13 19:45:00,
2013-02-13 14:50:00,39.1,32.2,29.81,SSW,201,3.0,13.0,76,0.00,,---,0.00,VWS V14.01,2013-02-13 19:50:00,
2013-02-13 14:55:00,39.3,32.0,29.81,South,180,7.0,13.0,75,0.00,,---,0.00,VWS V14.01,2013-02-13 19:55:00,
2013-02-13 15:00:00,39.3,32.0,29.81,South,183,8.0,13.0,75,0.00,,---,0.00,VWS V14.01,2013-02-13 20:00:00,
2013-02-13 15:05:00,39.4,32.5,29.80,SSE,164,5.0,9.0,76,0.00,,---,0.00,VWS V14.01,2013-02-13 20:05:00,
2013-02-13 15:11:00,39.4,32.5,29.80,South,189,7.0,9.0,76,0.00,,---,0.00,VWS V14.01,2013-02-13 20:11:00,
2013-02-13 15:16:00,39.2,32.3,29.79,South,178,1.0,10.0,76,0.00,,---,0.00,VWS V14.01,2013-02-13 20:16:00,
2013-02-13 15:21:00,39.4,32.8,29.79,South,183,3.0,10.0,77,0.00,,---,0.00,VWS V14.01,2013-02-13 20:21:00,
2013-02-13 15:26:00,39.2,32.6,29.79,SSW,203,4.0,10.0,77,0.00,,---,0.00,VWS V14.01,2013-02-13 20:26:00,
2013-02-13 15:30:00,39.1,32.2,29.79,South,177,3.0,10.0,76,0.00,,---,0.00,VWS V14.01,2013-02-13 20:30:00,
2013-02-13 15:31:00,39.1,32.2,29.79,South,182,5.0,5.0,76,0.00,,---,0.00,VWS V14.01,2013-02-13 20:31:00,
2013-02-13 15:36:00,39.1,31.9,29.79,SSW,205,7.0,8.0,75,0.00,,---,0.00,VWS V14.01,2013-02-13 20:36:00,
2013-02-13 15:41:00,38.9,31.7,29.79,SSE,167,8.0,9.0,75,0.00,,---,0.00,VWS V14.01,2013-02-13 20:41:00,
2013-02-13 15:46:00,38.8,31.9,29.79,South,188,2.0,9.0,76,0.00,,---,0.00,VWS V14.01,2013-02-13 20:46:00,
2013-02-13 15:51:00,38.6,31.4,29.78,South,176,7.0,10.0,75,0.00,,---,0.00,VWS V14.01,2013-02-13 20:51:00,
2013-02-13 15:56:00,38.5,31.6,29.78,South,172,8.0,10.0,76,0.00,,---,0.00,VWS V14.01,2013-02-13 20:56:00,
2013-02-13 16:00:00,38.4,31.5,29.78,South,180,3.0,10.0,76,0.00,,---,0.00,VWS V14.01,2013-02-13 21:00:00,
2013-02-13 16:01:00,38.3,31.7,29.78,SSW,199,7.0,7.0,77,0.00,,---,0.00,VWS V14.01,2013-02-13 21:01:00,
2013-02-13 16:06:00,38.1,31.5,29.78,SSW,198,5.0,9.0,77,0.00,,---,0.00,VWS V14.01,2013-02-13 21:06:00,
2013-02-13 16:11:00,37.9,31.4,29.78,SSW,196,2.0,10.0,77,0.00,,---,0.00,VWS V14.01,2013-02-13 21:11:00,
2013-02-13 16:16:00,38.0,31.8,29.78,SW,217,9.0,10.0,78,0.00,,---,0.00,VWS V14.01,2013-02-13 21:16:00,
2013-02-13 16:21:00,38.0,31.8,29.78,SSW,202,4.0,10.0,78,0.00,,---,0.00,VWS V14.01,2013-02-13 21:21:00,
2013-02-13 16:26:00,37.9,31.4,29.78,SSW,203,7.0,10.0,77,0.00,,---,0.00,VWS V14.01,2013-02-13 21:26:00,
2013-02-13 16:30:00,37.7,31.5,29.78,SSW,202,4.0,10.0,78,0.00,,---,0.00,VWS V14.01,2013-02-13 21:30:00,
2013-02-13 16:32:00,37.7,31.5,29.78,SSW,202,4.0,10.0,78,0.00,,---,0.00,VWS V14.01,2013-02-13 21:32:00,
2013-02-13 16:37:00,37.4,31.8,29.78,South,171,4.0,8.0,80,0.00,,---,0.00,VWS V14.01,2013-02-13 21:37:00,
2013-02-13 16:42:00,37.1,31.8,29.78,SSE,165,5.0,11.0,81,0.00,,---,0.00,VWS V14.01,2013-02-13 21:42:00,
2013-02-13 16:47:00,36.8,31.8,29.79,South,189,7.0,11.0,82,0.00,,---,0.00,VWS V14.01,2013-02-13 21:47:00,
2013-02-13 16:52:00,36.5,31.5,29.78,SSW,212,9.0,13.0,82,0.00,,---,0.00,VWS V14.01,2013-02-13 21:52:00,
2013-02-13 16:57:00,36.4,31.7,29.79,South,180,8.0,13.0,83,0.00,,---,0.00,VWS V14.01,2013-02-13 21:57:00,
2013-02-13 17:00:00,36.3,31.6,29.79,SSW,195,5.0,13.0,83,0.00,,---,0.00,VWS V14.01,2013-02-13 22:00:00,
2013-02-13 17:02:00,36.3,31.6,29.79,SSW,194,5.0,9.0,83,0.00,,---,0.00,VWS V14.01,2013-02-13 22:02:00,
2013-02-13 17:07:00,36.2,31.5,29.78,South,178,6.0,11.0,83,0.00,,---,0.00,VWS V14.01,2013-02-13 22:07:00,
2013-02-13 17:12:00,36.1,31.5,29.78,SSW,199,5.0,11.0,83,0.00,,---,0.00,VWS V14.01,2013-02-13 22:12:00,
2013-02-13 17:17:00,36.1,31.5,29.79,SSW,204,7.0,11.0,83,0.00,,---,0.00,VWS V14.01,2013-02-13 22:17:00,
2013-02-13 17:22:00,36.1,31.7,29.79,South,188,6.0,11.0,84,0.00,,---,0.00,VWS V14.01,2013-02-13 22:22:00,
2013-02-13 17:27:00,36.1,31.7,29.79,South,177,6.0,11.0,84,0.00,,---,0.00,VWS V14.01,2013-02-13 22:27:00,
2013-02-13 17:30:00,36.1,31.7,29.78,SSW,196,4.0,11.0,84,0.00,,---,0.00,VWS V14.01,2013-02-13 22:30:00,
2013-02-13 17:32:00,36.1,31.7,29.78,South,188,6.0,6.0,84,0.00,,---,0.00,VWS V14.01,2013-02-13 22:32:00,
2013-02-13 17:37:00,36.0,31.6,29.78,SSW,201,3.0,7.0,84,0.00,,---,0.00,VWS V14.01,2013-02-13 22:37:00,
2013-02-13 17:42:00,36.0,31.6,29.78,South,190,2.0,7.0,84,0.00,,---,0.00,VWS V14.01,2013-02-13 22:42:00,
2013-02-13 17:47:00,36.0,31.9,29.78,South,185,5.0,7.0,85,0.00,,---,0.00,VWS V14.01,2013-02-13 22:47:00,
2013-02-13 17:52:00,35.9,31.8,29.78,South,190,2.0,9.0,85,0.00,,---,0.00,VWS V14.01,2013-02-13 22:52:00,
2013-02-13 17:57:00,35.9,31.8,29.77,South,177,5.0,9.0,85,0.00,,---,0.00,VWS V14.01,2013-02-13 22:57:00,
2013-02-13 18:00:00,35.9,31.8,29.76,South,182,0.0,9.0,85,0.00,,---,0.00,VWS V14.01,2013-02-13 23:00:00,
2013-02-13 18:02:00,35.9,31.8,29.76,South,182,3.0,6.0,85,0.00,,---,0.00,VWS V14.01,2013-02-13 23:02:00,
2013-02-13 18:07:00,35.8,31.5,29.77,SSE,165,3.0,7.0,84,0.00,,---,0.00,VWS V14.01,2013-02-13 23:07:00,
2013-02-13 18:12:00,35.8,31.7,29.76,South,169,2.0,7.0,85,0.00,,---,0.00,VWS V14.01,2013-02-13 23:12:00,
2013-02-13 18:17:00,35.7,31.6,29.76,South,177,3.0,7.0,85,0.00,,---,0.00,VWS V14.01,2013-02-13 23:17:00,
2013-02-13 18:22:00,35.7,31.4,29.76,South,183,5.0,7.0,84,0.00,,---,0.00,VWS V14.01,2013-02-13 23:22:00,
2013-02-13 18:27:00,35.7,31.4,29.76,South,188,2.0,7.0,84,0.00,,---,0.00,VWS V14.01,2013-02-13 23:27:00,
2013-02-13 18:30:00,35.7,31.4,29.76,South,178,3.0,7.0,84,0.00,,---,0.00,VWS V14.01,2013-02-13 23:30:00,
2013-02-13 18:32:00,35.7,31.4,29.77,South,179,0.0,5.0,84,0.00,,---,0.00,VWS V14.01,2013-02-13 23:32:00,
2013-02-13 18:37:00,35.7,31.4,29.76,South,181,0.0,5.0,84,0.00,,---,0.00,VWS V14.01,2013-02-13 23:37:00,
2013-02-13 18:42:00,35.6,31.2,29.76,South,181,0.0,5.0,84,0.00,,---,0.00,VWS V14.01,2013-02-13 23:42:00,
2013-02-13 18:47:00,35.5,31.1,29.76,South,181,0.0,5.0,84,0.00,,---,0.00,VWS V14.01,2013-02-13 23:47:00,
2013-02-13 18:52:00,35.2,30.6,29.76,South,181,0.0,5.0,83,0.00,,---,0.00,VWS V14.01,2013-02-13 23:52:00,
2013-02-13 18:57:00,35.0,30.7,29.75,South,181,0.0,5.0,84,0.00,,---,0.00,VWS V14.01,2013-02-13 23:57:00,
2013-02-13 19:00:00,34.9,30.6,29.76,South,181,0.0,5.0,84,0.00,,---,0.00,VWS V14.01,2013-02-14 00:00:00,
2013-02-13 19:02:00,34.8,30.5,29.76,South,181,0.0,0.0,84,0.00,,---,0.00,VWS V14.01,2013-02-14 00:02:00,
2013-02-13 19:07:00,34.5,30.2,29.76,South,181,0.0,0.0,84,0.00,,---,0.00,VWS V14.01,2013-02-14 00:07:00,
2013-02-13 19:12:00,34.4,30.1,29.76,South,181,0.0,0.0,84,0.00,,---,0.00,VWS V14.01,2013-02-14 00:12:00,
2013-02-13 19:17:00,34.4,30.4,29.77,South,181,2.0,5.0,85,0.00,,---,0.00,VWS V14.01,2013-02-14 00:17:00,
2013-02-13 19:22:00,34.4,30.4,29.76,SSE,163,0.0,5.0,85,0.00,,---,0.00,VWS V14.01,2013-02-14 00:22:00,
2013-02-13 19:27:00,34.4,30.4,29.75,SSE,162,0.0,5.0,85,0.00,,---,0.00,VWS V14.01,2013-02-14 00:27:00,
2013-02-13 19:30:00,34.4,30.4,29.75,SSE,162,0.0,5.0,85,0.00,,---,0.00,VWS V14.01,2013-02-14 00:30:00,
2013-02-13 19:32:00,34.4,30.4,29.75,SSE,154,0.0,0.0,85,0.00,,---,0.00,VWS V14.01,2013-02-14 00:32:00,
2013-02-13 19:37:00,34.4,30.4,29.76,SE,143,1.0,5.0,85,0.00,,---,0.00,VWS V14.01,2013-02-14 00:37:00,
2013-02-13 19:42:00,34.4,30.4,29.76,SE,142,1.0,5.0,85,0.00,,---,0.00,VWS V14.01,2013-02-14 00:42:00,
2013-02-13 19:47:00,34.4,30.4,29.76,SSE,161,0.0,5.0,85,0.00,,---,0.00,VWS V14.01,2013-02-14 00:47:00,
2013-02-13 19:52:00,34.4,30.4,29.75,SSE,160,0.0,5.0,85,0.00,,---,0.00,VWS V14.01,2013-02-14 00:52:00,
2013-02-13 19:57:00,34.4,30.4,29.75,SSE,160,0.0,5.0,85,0.00,,---,0.00,VWS V14.01,2013-02-14 00:57:00,
2013-02-13 20:00:00,34.4,30.4,29.76,SSE,160,0.0,5.0,85,0.00,,---,0.00,VWS V14.01,2013-02-14 01:00:00,
2013-02-13 20:02:00,34.4,30.4,29.76,SSE,160,0.0,0.0,85,0.00,,---,0.00,VWS V14.01,2013-02-14 01:02:00,
2013-02-13 20:07:00,34.4,30.4,29.75,SE,132,0.0,3.0,85,0.00,,---,0.00,VWS V14.01,2013-02-14 01:07:00,
2013-02-13 20:12:00,34.4,30.4,29.75,SE,132,0.0,3.0,85,0.00,,---,0.00,VWS V14.01,2013-02-14 01:12:00,
2013-02-13 20:17:00,34.4,30.4,29.75,SE,124,3.0,3.0,85,0.00,,---,0.00,VWS V14.01,2013-02-14 01:17:00,
2013-02-13 20:22:00,34.4,30.4,29.74,SE,124,0.0,3.0,85,0.00,,---,0.00,VWS V14.01,2013-02-14 01:22:00,
2013-02-13 20:27:00,34.4,30.4,29.74,ESE,123,0.0,3.0,85,0.00,,---,0.00,VWS V14.01,2013-02-14 01:27:00,
2013-02-13 20:30:00,34.4,30.4,29.74,ESE,123,0.0,3.0,85,0.00,,---,0.00,VWS V14.01,2013-02-14 01:30:00,
2013-02-13 20:32:00,34.4,30.4,29.74,ESE,123,0.0,0.0,85,0.00,,---,0.00,VWS V14.01,2013-02-14 01:32:00,
2013-02-13 20:37:00,34.4,30.4,29.74,ESE,123,0.0,0.0,85,0.00,,---,0.00,VWS V14.01,2013-02-14 01:37:00,
2013-02-13 20:42:00,34.4,30.4,29.74,ESE,123,0.0,0.0,85,0.00,,---,0.00,VWS V14.01,2013-02-14 01:42:00,
2013-02-13 20:47:00,34.4,30.4,29.74,ESE,123,0.0,0.0,85,0.00,,---,0.00,VWS V14.01,2013-02-14 01:47:00,
2013-02-13 20:52:00,34.4,30.4,29.74,ESE,109,0.0,4.0,85,0.00,,---,0.00,VWS V14.01,2013-02-14 01:52:00,
2013-02-13 20:57:00,34.4,30.1,29.74,ESE,109,0.0,4.0,84,0.00,,---,0.00,VWS V14.01,2013-02-14 01:57:00,
2013-02-13 21:00:00,34.4,30.1,29.74,ESE,109,0.0,4.0,84,0.00,,---,0.00,VWS V14.01,2013-02-14 02:00:00,
2013-02-13 21:02:00,34.4,30.1,29.74,ESE,109,0.0,0.0,84,0.00,,---,0.00,VWS V14.01,2013-02-14 02:02:00,
2013-02-13 21:30:00,34.4,30.1,29.75,North,0,0.0,0.0,84,0.00,,---,0.00,VWS V14.01,2013-02-14 02:30:00,
2013-02-13 22:04:00,34.4,29.8,29.74,ESE,109,0.0,0.0,83,0.00,,---,0.00,VWS V14.01,2013-02-14 03:04:00,
2013-02-13 22:09:00,34.4,29.8,29.74,ESE,109,0.0,0.0,83,0.00,,---,0.00,VWS V14.01,2013-02-14 03:09:00,
2013-02-13 22:14:00,34.4,29.5,29.74,ESE,109,0.0,0.0,82,0.00,,---,0.00,VWS V14.01,2013-02-14 03:14:00,
2013-02-13 22:19:00,34.4,29.5,29.73,ESE,109,0.0,0.0,82,0.00,,---,0.00,VWS V14.01,2013-02-14 03:19:00,
2013-02-13 22:24:00,34.4,29.5,29.72,ESE,109,0.0,3.0,82,0.00,,---,0.00,VWS V14.01,2013-02-14 03:24:00,
2013-02-13 22:29:00,34.3,29.4,29.71,NE,55,1.0,3.0,82,0.00,,---,0.00,VWS V14.01,2013-02-14 03:29:00,
2013-02-13 22:34:00,34.2,29.3,29.71,NNE,32,0.0,3.0,82,0.00,,---,0.00,VWS V14.01,2013-02-14 03:34:00,
2013-02-13 22:39:00,34.2,29.3,29.71,NNE,30,0.0,4.0,82,0.00,,---,0.00,VWS V14.01,2013-02-14 03:39:00,
2013-02-13 22:44:00,34.2,29.3,29.70,NNE,18,1.0,6.0,82,0.00,,---,0.00,VWS V14.01,2013-02-14 03:44:00,
2013-02-13 22:49:00,34.2,29.3,29.69,NNE,26,5.0,7.0,82,0.00,,---,0.00,VWS V14.01,2013-02-14 03:49:00,
2013-02-13 22:54:00,34.1,29.2,29.68,NNE,18,7.0,9.0,82,0.00,,---,0.00,VWS V14.01,2013-02-14 03:54:00,
2013-02-13 22:59:00,34.0,29.1,29.68,North,8,4.0,9.0,82,0.00,,---,0.00,VWS V14.01,2013-02-14 03:59:00,
2013-02-13 23:04:00,33.9,29.0,29.68,NNE,20,2.0,6.0,82,0.00,,---,0.00,VWS V14.01,2013-02-14 04:04:00,
2013-02-13 23:09:00,33.8,28.9,29.69,North,11,0.0,6.0,82,0.00,,---,0.00,VWS V14.01,2013-02-14 04:09:00,
2013-02-13 23:14:00,33.7,28.8,29.70,North,11,0.0,6.0,82,0.00,,---,0.00,VWS V14.01,2013-02-14 04:14:00,
2013-02-13 23:19:00,33.7,28.8,29.69,North,11,0.0,6.0,82,0.00,,---,0.00,VWS V14.01,2013-02-14 04:19:00,
2013-02-13 23:24:00,33.8,29.2,29.70,North,11,0.0,6.0,83,0.00,,---,0.00,VWS V14.01,2013-02-14 04:24:00,
2013-02-13 23:30:00,33.9,29.3,29.70,North,11,0.0,6.0,83,0.00,,---,0.00,VWS V14.01,2013-02-14 04:30:00,
2013-02-13 23:35:00,34.0,29.4,29.71,North,11,0.0,0.0,83,0.00,,---,0.00,VWS V14.01,2013-02-14 04:35:00,
2013-02-13 23:40:00,34.1,29.5,29.71,North,11,0.0,0.0,83,0.00,,---,0.00,VWS V14.01,2013-02-14 04:40:00,
2013-02-13 23:45:00,34.1,29.5,29.72,North,11,0.0,0.0,83,0.00,,---,0.00,VWS V14.01,2013-02-14 04:45:00,
2013-02-13 23:50:00,34.2,29.6,29.72,North,11,0.0,0.0,83,0.00,,---,0.00,VWS V14.01,2013-02-14 04:50:00,
2013-02-13 23:55:00,34.2,29.6,29.72,North,11,0.0,4.0,83,0.00,,---,0.00,VWS V14.01,2013-02-14 04:55:00,